Location: Buisson
(44.2787°N, 4.9969°E)
Time: 02:36:22
(UTC+00:00)

ALOS - Pass Details

Date: 18 April 2021
Orbit: 682 x 685 km, 97.9° (Epoch: 08 May)

Event Time Altitude Azimuth Distance (km) Brightness Sun altitude
Rises 04:18:45 0° 9° (N) 3,058 6.1 -6.3°
Reaches altitude 10° 04:21:01 10° 6° (N) 2,137 5.2 -6.0°
Maximum altitude 04:25:37 60° 287° (WNW) 787 2.4 -5.2°
Drops below altitude 10° 04:30:11 10° 208° (SSW) 2,121 4.4 -4.4°
Sets 04:32:26 0° 205° (SSW) 3,031 5.2 -4.0°
